Theta_e
313 312 312 310 310 311 312 312 312 312 313 311 310 310 309 311 307 303 300 301 304 306 308 305 306 310 311 311 313 312 311 307 309 312 310 309 308 303 302 301 302 302 302 302 302 303 304 305 306 308 309 308 308 308 308 307 307 308 309 310 311 309 308 309 310 315 321 330 329 326 326 326 325 326
313 312 312 311 310 312 311 311 313 313 312 310 310 309 310 312 308 306 301 300 304 305 308 307 305 309 311 310 312 312 311 307 309 312 311 309 308 303 302 301 301 300 301 301 301 302 303 304 304 306 307 307 306 306 306 305 306 308 308 307 307 306 307 307 309 314 317 319 322 324 324 324 324 323
312 312 311 311 310 311 311 311 311 312 312 310 309 308 309 311 312 308 305 301 302 308 304 307 309 308 311 310 311 312 312 310 309 311 312 310 307 307 303 302 301 301 300 301 301 303 303 302 302 303 304 305 305 304 304 305 305 306 305 303 303 304 305 305 306 311 315 315 317 320 325 325 324 324
311 311 310 311 310 310 309 310 310 309 310 311 309 308 308 309 311 309 305 302 301 305 306 306 308 309 311 310 310 311 311 311 309 311 311 310 309 310 309 302 301 301 300 300 301 301 302 303 303 303 303 303 304 303 302 302 302 303 301 300 301 302 302 303 303 308 311 313 313 316 319 324 325 324
310 309 308 308 309 310 309 309 309 309 309 309 309 309 307 306 309 309 307 303 302 304 308 306 306 309 310 308 309 309 310 310 311 310 312 312 311 311 310 310 302 301 300 300 300 300 300 301 303 302 302 302 302 300 299 299 299 301 300 299 299 300 301 302 300 302 307 309 310 311 314 318 322 321
310 309 307 307 308 309 308 309 308 309 307 308 306 306 307 306 307 310 308 305 303 301 305 305 307 306 308 305 309 309 308 309 310 310 310 311 311 310 310 310 309 301 301 300 300 300 299 299 300 300 299 298 299 298 298 298 298 299 298 296 297 299 300 302 301 300 305 306 307 308 309 309 317 321
309 308 308 308 309 309 308 309 309 310 309 308 307 307 307 307 307 308 308 306 304 303 301 305 304 306 306 305 305 308 309 309 310 309 309 310 310 310 310 310 310 303 301 300 301 301 300 299 299 299 299 299 298 298 298 297 298 297 297 297 297 298 298 298 298 299 302 304 304 306 307 306 307 317
309 309 308 308 309 309 308 308 308 308 309 308 307 307 307 307 307 308 308 307 306 304 302 303 303 305 305 304 306 308 309 308 308 309 309 310 309 309 309 309 309 306 303 301 301 301 301 300 299 299 299 299 299 298 298 298 297 297 297 297 297 296 296 297 297 297 298 300 301 303 304 303 306 310
310 310 309 308 308 308 308 308 307 308 308 308 308 307 306 306 307 308 308 307 306 304 303 303 304 305 305 305 305 306 305 306 307 309 308 308 309 308 308 308 308 305 304 303 303 302 301 300 300 300 299 299 298 298 298 298 297 297 296 296 297 297 296 296 296 296 297 297 297 300 303 301 303 308
311 310 309 309 308 308 307 307 307 308 308 307 307 307 307 307 308 308 308 307 307 306 303 303 303 305 303 304 305 306 307 305 304 306 307 308 309 307 306 306 307 308 309 309 307 303 304 302 299 299 300 299 298 299 298 298 297 297 296 296 296 296 296 296 296 296 296 296 296 297 298 299 301 304
311 310 310 310 309 308 308 308 307 308 308 308 307 307 308 308 308 307 307 307 306 305 304 303 303 302 304 304 301 304 307 307 305 304 305 304 307 307 306 304 305 307 308 307 304 304 305 304 305 301 301 300 299 299 298 298 298 297 296 296 296 296 296 296 296 296 296 296 296 296 296 297 299 302
311 311 310 310 310 310 310 310 310 310 308 308 307 308 309 308 308 307 306 306 304 305 304 302 301 301 301 301 304 305 306 304 303 304 304 302 303 304 305 305 303 305 307 308 307 304 305 306 304 303 303 302 301 299 299 298 298 297 296 296 296 296 296 296 296 296 296 296 296 295 295 296 296 298
311 311 311 311 308 308 307 304 305 304 305 310 308 308 309 308 307 307 307 305 304 303 304 303 303 301 300 301 301 302 302 301 301 304 306 303 304 304 303 304 304 304 305 307 307 304 305 306 305 306 307 307 305 303 300 299 298 297 296 295 295 296 296 296 296 296 296 295 295 295 295 295 295 295
311 311 311 309 308 307 305 302 298 297 297 300 305 306 308 309 308 306 306 305 303 303 302 302 302 300 299 299 301 302 304 304 305 303 304 302 302 303 303 303 303 304 305 305 305 303 305 305 305 304 304 306 306 304 302 299 298 297 296 296 295 295 296 296 296 296 295 295 295 295 295 295 295 295
311 310 308 309 308 307 304 303 296 296 295 295 295 295 297 299 305 308 306 305 305 302 301 303 303 301 300 301 302 303 304 304 303 302 303 303 302 301 299 297 301 304 304 304 305 302 304 305 303 303 304 305 306 305 301 296 297 296 296 296 295 295 296 296 296 296 295 295 295 295 295 295 295 294
311 310 310 309 310 309 307 306 304 301 296 294 294 294 295 294 294 294 303 306 305 304 302 301 302 303 301 301 302 302 303 303 303 304 304 304 303 302 299 299 298 302 304 303 304 301 303 305 304 303 303 304 305 305 298 297 296 296 296 296 295 295 295 295 296 295 295 295 295 294 294 294 294 294
310 311 311 311 311 308 306 306 306 305 304 298 296 296 296 296 296 294 293 294 306 308 304 303 301 302 303 301 301 303 303 306 304 304 302 304 304 303 300 300 300 302 303 303 303 300 301 303 303 302 303 304 305 305 300 297 297 297 296 296 295 295 295 295 295 295 295 295 295 294 294 294 294 294
311 311 311 310 309 309 309 310 308 307 306 305 307 308 308 307 304 295 294 294 295 302 306 305 303 303 304 302 302 304 305 304 304 303 301 304 303 302 302 303 303 304 302 301 302 300 300 303 302 301 303 305 304 305 300 297 297 297 296 296 295 295 295 295 295 295 295 295 295 294 294 294 293 294
311 311 311 311 310 309 310 311 309 309 308 309 308 307 307 308 307 308 307 307 309 308 308 307 306 305 304 304 304 303 304 305 306 307 304 305 305 305 306 305 304 303 303 302 302 299 299 303 301 302 303 304 302 304 300 297 297 297 297 295 296 295 295 295 295 295 295 295 295 294 294 293 293 294
311 311 311 311 310 310 310 306 298 302 314 308 307 306 307 307 307 304 304 296 297 306 307 307 307 306 305 297 304 303 303 304 307 308 306 307 306 303 302 300 302 300 301 301 300 301 300 302 300 301 304 304 301 303 303 299 298 298 297 296 296 296 295 295 296 295 295 295 295 294 294 293 293 294
310 311 310 311 310 309 310 302 295 295 298 309 306 306 307 307 307 306 308 296 291 292 292 290 289 288 290 290 291 292 292 300 303 306 302 302 303 301 299 300 300 299 301 300 301 302 298 302 301 301 303 303 301 301 302 303 299 298 298 296 296 296 296 296 296 296 295 295 295 295 294 294 294 295
310 310 305 309 310 309 311 295 294 294 302 309 307 307 307 306 306 305 306 308 308 293 292 292 292 291 292 292 292 292 293 295 300 305 300 302 302 300 300 298 300 300 300 298 302 302 299 301 301 300 302 303 302 302 302 301 301 299 300 298 297 296 296 296 296 296 296 295 295 295 294 294 295 298
310 310 306 301 303 308 307 291 293 293 300 309 307 307 307 304 304 305 307 308 308 308 308 307 306 303 299 304 308 307 294 294 301 306 304 304 302 299 299 299 299 297 298 299 303 300 300 300 299 300 299 298 301 303 302 301 301 302 303 303 303 297 297 297 297 296 296 296 295 295 294 294 294 297
309 309 308 302 291 291 291 291 292 292 292 308 309 307 307 305 303 306 306 305 306 305 304 305 305 305 307 306 306 306 307 307 306 305 306 305 303 302 299 299 299 297 297 300 302 301 302 301 298 302 300 298 295 299 301 301 300 300 302 303 302 299 298 298 298 297 296 296 295 295 294 294 294 296
307 307 306 307 293 290 291 291 290 292 291 293 307 308 308 308 305 301 306 303 300 306 305 305 305 305 305 305 304 303 303 302 303 304 304 304 304 303 300 298 299 298 299 303 299 303 300 301 298 301 301 301 300 298 299 300 300 299 301 301 301 301 302 302 300 302 298 297 296 295 295 294 294 295
306 306 306 308 296 289 290 290 290 291 292 290 305 314 292 289 292 304 306 306 307 306 304 303 302 303 302 302 302 301 302 301 302 303 303 304 304 303 303 300 299 298 298 303 297 303 300 300 299 299 300 299 299 298 297 298 300 300 300 301 300 301 302 301 301 301 301 301 301 297 297 294 295 294
305 307 308 303 291 290 289 290 290 291 290 292 302 288 290 293 289 295 305 305 305 304 303 302 303 301 302 303 301 300 300 302 303 303 303 304 304 304 304 302 303 302 301 303 304 304 302 300 301 300 299 299 296 296 298 296 297 300 298 299 300 300 302 301 300 300 300 300 301 296 296 295 294 294
305 306 307 301 289 290 289 289 290 290 291 299 289 290 290 289 291 303 305 302 305 300 300 300 301 302 301 302 301 300 302 301 303 304 305 305 305 304 304 304 303 301 301 302 303 302 302 300 300 302 302 298 296 295 296 299 299 298 296 299 299 298 300 301 301 300 300 301 301 300 298 297 297 297
307 297 290 288 289 289 289 289 289 290 290 287 289 289 288 294 302 303 304 304 304 302 301 300 301 302 301 301 301 303 304 304 306 304 304 304 305 304 304 306 305 304 305 305 303 301 301 301 300 301 302 300 297 298 299 298 298 298 297 297 296 297 298 300 300 300 300 301 300 299 298 297 296 296
289 290 290 288 288 289 291 298 300 302 302 290 290 289 291 303 302 304 303 303 301 301 301 299 298 300 301 301 304 303 303 304 302 301 301 301 302 303 301 302 303 305 306 305 303 301 301 301 301 302 301 300 298 298 300 300 297 298 298 297 298 297 298 298 298 300 300 300 300 300 300 299 297 296
299 296 297 297 294 294 291 293 295 297 293 296 297 300 300 301 304 302 303 303 303 301 300 299 300 301 301 303 302 303 302 302 301 302 301 300 300 301 301 300 301 301 302 305 305 304 302 302 302 302 300 300 299 299 300 301 297 298 299 298 297 293 296 298 298 298 300 300 300 300 300 299 298 296
302 301 294 295 300 300 299 298 300 300 301 300 299 301 301 302 302 300 296 296 301 302 302 301 300 301 302 301 301 300 300 301 301 302 300 301 300 299 301 299 300 300 301 302 303 306 302 305 304 302 302 300 299 300 300 299 298 298 299 299 298 298 299 298 298 298 300 300 298 298 299 298 297 297
303 301 299 300 299 299 295 297 300 301 301 302 302 303 303 303 302 301 299 300 300 302 301 301 302 299 300 300 300 300 300 301 300 303 300 301 301 301 301 298 298 298 297 298 301 302 303 302 303 304 303 304 303 302 299 296 297 298 298 299 298 298 298 299 299 298 300 298 297 297 297 299 298 297
302 300 299 299 298 300 299 298 298 299 300 299 299 301 296 300 302 301 301 301 301 301 300 300 299 300 300 300 301 300 299 300 301 300 297 300 301 299 299 298 298 299 298 298 299 299 301 301 302 303 305 305 306 305 302 298 296 297 298 299 298 297 298 300 300 300 299 297 296 295 295 296 298 298
297 298 297 299 299 298 299 298 298 298 298 297 298 300 299 298 295 296 301 302 299 298 295 295 300 299 299 298 300 300 300 299 299 299 300 301 301 299 298 298 299 299 299 298 299 300 300 299 300 300 300 301 303 304 297 302 299 297 298 297 299 298 298 300 300 300 300 298 297 294 295 296 296 297
297 299 298 298 298 300 298 298 298 299 299 299 297 298 297 298 299 298 298 299 301 298 297 296 295 296 297 299 297 297 297 294 297 298 299 298 299 299 298 299 298 297 298 299 299 300 300 298 298 297 296 295 294 293 296 296 298 299 296 295 297 298 299 300 300 300 299 298 298 296 291 292 295 298
296 298 300 299 300 300 298 299 299 299 300 299 299 299 298 297 299 299 301 297 300 297 299 295 297 297 296 296 295 294 294 295 295 296 296 297 298 297 298 297 295 297 297 298 300 300 300 299 298 298 295 292 292 291 292 302 295 296 302 295 295 297 298 298 298 298 299 299 298 298 295 294 294 297
296 298 299 298 300 301 300 300 299 298 299 299 299 299 299 299 300 300 302 301 298 296 296 296 295 294 295 295 295 295 296 295 296 295 295 297 295 295 296 295 296 297 297 297 299 298 300 299 299 298 296 291 291 291 291 293 294 296 296 300 294 294 297 296 294 294 296 299 297 298 299 294 295 297
299 299 299 299 299 300 300 300 299 299 301 300 299 298 299 299 299 298 297 297 297 296 297 296 296 295 295 297 295 294 294 293 293 293 293 294 295 295 295 294 295 296 297 296 297 297 298 297 298 298 296 294 291 292 292 291 291 295 298 293 298 295 293 295 293 296 296 295 297 299 300 300 298 290
300 300 299 299 298 299 299 301 300 300 300 300 299 300 298 296 297 297 296 294 295 293 293 295 294 295 295 295 294 294 293 295 294 294 293 294 293 294 293 293 293 293 292 293 294 296 297 297 298 298 296 295 294 294 294 295 295 296 297 297 291 296 294 295 292 293 293 296 297 295 294 296 294 296
299 299 299 299 300 300 300 300 300 299 299 299 300 297 298 298 297 296 296 296 293 294 294 294 294 293 293 294 293 293 292 292 293 293 292 292 292 291 291 290 291 292 292 291 294 295 295 299 299 286 293 295 295 299 295 294 292 293 293 296 292 289 291 293 297 296 293 296 296 294 293 293 293 293
300 300 300 300 299 300 300 300 300 299 300 299 299 298 298 295 296 293 294 292 293 292 293 294 294 294 293 293 294 293 293 292 292 292 292 292 292 291 291 291 292 293 292 292 292 294 297 300 300 300 300 298 295 292 290 290 290 291 292 293 294 292 288 289 291 293 303 298 293 292 292 293 293 292
301 301 300 298 298 299 299 299 299 299 299 299 298 299 296 296 295 295 295 294 294 294 294 295 295 295 295 295 295 294 294 293 293 293 292 292 292 292 292 292 292 292 292 292 294 295 294 297 298 296 295 294 293 292 290 291 291 291 291 292 293 294 295 292 290 290 290 290 291 295 296 293 291 290
301 300 299 298 298 299 300 299 299 299 299 299 297 297 296 295 295 295 294 295 295 295 295 295 296 295 295 296 296 295 295 295 294 293 293 293 293 293 293 292 292 292 292 292 292 293 293 294 295 295 293 293 293 292 290 290 291 291 291 291 292 292 292 294 296 293 289 289 289 289 289 290 292 291
300 299 299 299 299 299 300 300 298 298 298 297 297 295 296 295 295 295 295 295 296 295 295 296 296 296 296 296 296 295 295 294 294 294 294 294 294 293 293 293 293 292 293 293 293 292 293 293 294 293 293 293 293 292 291 291 291 291 291 291 291 292 293 294 294 294 294 295 293 288 289 290 290 289
Wind_Speed
6 6 6 5 5 5 5 5 5 5 4 5 5 5 6 6 4 4 6 8 6 8 9 8 9 10 10 8 8 8 8 12 14 10 10 10 10 11 14 18 20 21 22 23 24 24 25 25 26 27 27 28 27 28 28 28 27 28 27 28 26 26 25 22 21 19 16 14 14 15 17 17 19 22
5 5 5 5 6 5 5 6 5 5 4 5 5 6 6 6 6 5 5 6 7 6 7 8 8 10 9 9 8 8 8 11 13 10 9 8 9 10 10 16 17 18 20 21 22 25 24 25 26 26 28 27 28 27 28 27 28 28 29 28 27 27 25 25 22 21 19 17 10 10 12 16 18 18
5 5 6 6 6 5 6 5 5 5 5 5 5 6 6 6 6 6 5 5 6 6 6 6 7 9 9 8 8 7 7 8 10 9 8 9 9 3 12 17 16 14 17 18 22 24 24 25 25 27 27 27 28 29 27 28 27 28 29 27 27 25 26 25 24 22 22 21 19 15 12 14 19 22
6 6 6 6 5 5 5 5 5 6 6 6 6 6 6 6 6 5 5 7 6 6 5 6 6 9 8 8 9 9 7 6 8 10 8 10 10 9 6 15 14 10 13 14 15 16 21 24 25 26 27 27 28 29 28 28 28 27 27 28 26 25 25 25 25 24 23 22 22 20 16 13 16 19
6 7 8 8 7 6 6 5 5 6 6 6 6 6 6 6 6 6 6 6 6 6 5 5 6 8 9 7 9 9 8 8 8 8 8 9 9 8 8 6 14 9 9 11 11 11 14 18 22 22 24 26 27 26 28 28 27 27 27 27 26 26 26 25 24 24 23 22 21 21 20 15 14 16
5 6 8 8 8 7 7 6 6 6 7 7 7 7 7 7 7 7 5 5 5 6 6 6 7 7 9 8 9 9 9 9 8 9 8 8 8 8 8 8 7 9 6 9 9 8 9 13 15 17 18 18 18 25 25 27 26 27 27 23 25 26 27 26 25 24 24 23 21 21 20 23 13 15
7 7 7 7 6 5 6 6 6 6 6 6 7 7 6 7 6 6 7 5 5 5 6 6 6 7 8 9 10 10 8 8 7 8 8 8 7 7 8 8 7 7 4 7 11 5 7 10 12 15 15 17 19 21 21 25 24 27 26 25 26 25 25 25 24 24 25 24 23 21 21 19 23 13
6 7 7 6 6 6 6 6 6 6 6 6 6 6 6 6 6 6 6 6 5 5 5 7 7 7 7 8 9 8 7 8 7 6 7 7 8 9 8 8 8 8 4 3 10 6 3 8 10 13 14 17 17 19 22 23 25 24 26 24 26 27 27 25 23 22 22 23 23 23 21 20 19 20
6 6 6 6 6 6 6 6 6 6 7 6 6 5 5 5 5 5 5 5 5 5 6 5 7 7 7 7 8 9 9 8 7 7 7 7 7 9 10 8 8 9 8 1 7 8 1 7 8 10 13 14 17 18 20 21 24 25 27 27 25 24 26 26 25 24 23 21 21 22 22 20 19 19
6 6 6 7 6 6 6 6 6 6 7 6 6 6 6 5 5 5 5 5 5 5 6 6 6 7 8 8 8 9 9 9 9 8 7 7 7 8 10 10 8 8 8 8 8 10 8 7 8 7 12 11 19 16 20 20 24 24 25 26 27 25 26 26 25 23 23 23 21 20 21 21 20 19
7 7 6 6 6 6 6 6 6 5 6 5 6 5 5 5 4 4 4 4 5 5 5 6 7 7 7 7 8 8 8 7 8 9 9 9 9 7 9 11 10 9 10 7 4 8 9 5 8 4 9 10 16 18 18 21 24 26 24 24 22 26 25 26 27 25 24 22 21 20 18 19 20 19
7 7 7 6 6 6 6 5 5 5 4 4 5 4 4 5 4 4 4 4 5 5 6 7 7 7 7 7 7 7 8 8 9 10 9 10 10 9 8 10 12 11 10 10 8 10 12 8 8 8 8 11 11 18 18 22 23 23 22 23 22 22 23 25 26 27 27 25 24 22 20 18 18 20
7 7 7 7 8 10 10 12 10 10 9 5 4 4 4 5 5 4 4 5 5 5 6 7 7 7 8 8 9 9 10 11 10 9 9 8 9 9 8 9 11 12 12 10 9 10 12 10 10 10 10 11 12 14 18 17 19 20 19 23 22 21 20 20 24 27 27 26 25 25 22 21 18 18
7 7 7 9 13 11 10 9 11 12 13 12 10 7 6 5 4 5 5 5 5 6 6 7 7 8 9 9 10 9 9 9 9 9 10 9 9 9 8 8 10 13 13 11 9 10 10 10 9 11 11 10 11 11 13 13 15 17 18 20 21 20 20 21 20 22 26 26 27 26 25 23 21 18
7 8 9 9 10 10 9 9 10 10 9 9 9 10 10 10 8 6 5 6 6 6 7 6 6 7 8 9 9 9 9 9 9 9 8 8 9 9 10 11 10 12 14 11 9 9 11 10 10 11 11 11 10 10 10 15 16 16 15 18 21 21 20 21 22 22 20 22 24 26 26 25 23 20
7 8 8 7 7 6 8 9 8 8 7 7 8 8 8 9 9 8 8 6 6 6 6 7 7 6 7 7 8 9 9 10 9 9 8 8 8 9 9 9 10 11 14 11 9 9 10 10 9 10 10 10 10 7 11 14 16 14 12 16 20 21 20 21 22 22 23 23 23 25 25 25 22 21
7 7 7 7 5 7 12 8 8 8 7 6 6 9 8 5 5 6 8 8 8 5 6 6 7 7 6 7 8 9 10 10 8 9 8 9 8 7 7 8 9 11 14 11 9 9 11 11 10 10 10 10 10 8 9 14 17 14 10 13 19 20 20 20 20 22 23 24 25 25 25 24 23 22
7 7 7 7 7 7 8 6 7 7 7 7 6 6 4 4 4 5 5 5 5 4 6 6 6 6 6 6 7 9 9 9 8 8 9 9 9 8 6 5 7 8 12 12 11 8 11 12 10 10 10 10 9 9 8 13 15 16 9 12 18 20 20 19 18 21 22 24 25 26 27 26 24 22
7 7 6 7 7 8 7 5 4 6 5 4 3 3 3 2 4 4 5 5 5 5 5 5 5 5 5 6 7 8 9 9 7 7 8 9 8 7 4 2 6 7 10 13 10 8 10 11 11 10 10 9 10 10 7 10 13 15 9 10 19 19 19 18 18 19 21 23 25 27 28 27 25 22
6 6 6 7 7 7 7 7 1 6 1 5 3 3 3 3 4 5 4 3 5 6 5 5 5 5 4 5 5 6 7 9 8 8 5 6 7 7 6 7 6 8 9 12 10 8 10 11 11 11 9 8 10 10 11 11 12 14 9 9 18 19 17 18 16 19 20 22 24 26 28 28 25 22
6 6 7 6 6 7 6 9 6 4 7 2 3 3 2 2 2 4 4 4 3 3 2 2 2 2 2 5 7 9 9 7 10 7 6 8 8 8 8 8 7 7 9 11 12 9 9 11 11 11 10 8 10 11 11 12 13 12 11 8 17 17 17 16 16 18 19 21 24 24 26 28 25 22
7 5 6 5 5 7 6 12 10 7 6 4 3 3 3 4 3 4 3 4 5 6 5 6 8 8 9 11 10 10 8 9 10 8 8 8 8 7 8 8 8 6 8 11 13 9 9 11 10 11 9 7 8 10 11 12 13 14 13 12 12 17 15 16 14 16 18 19 23 23 25 27 25 19
6 6 6 1 5 4 10 13 10 8 8 4 3 2 3 2 2 2 2 2 3 5 6 6 7 7 10 10 8 7 8 9 9 6 7 7 7 7 8 8 8 7 8 11 13 9 9 11 11 11 10 9 8 9 11 11 13 13 12 13 12 15 15 16 15 15 17 17 22 22 23 24 24 17
6 7 7 5 3 5 9 10 11 8 8 7 2 3 3 2 3 3 1 3 3 1 1 1 1 1 1 1 2 2 3 3 4 4 6 6 6 6 7 7 7 7 7 9 12 9 8 9 11 10 10 10 10 11 10 10 13 13 13 12 12 15 15 16 16 18 18 16 21 21 22 23 22 18
7 7 7 7 8 6 7 8 8 7 6 6 5 4 1 4 6 4 3 5 6 3 2 3 3 2 2 1 1 0 1 3 4 4 4 5 5 5 6 6 6 6 6 7 7 9 8 9 10 10 9 9 9 10 10 9 11 13 13 12 12 13 13 13 14 16 18 19 20 21 21 22 21 19
7 6 6 7 8 8 8 7 7 5 5 5 8 3 8 5 2 5 3 3 5 4 3 1 1 1 1 1 1 2 1 2 3 3 4 4 4 4 4 5 5 6 7 7 6 8 9 8 10 10 9 10 10 10 10 10 10 12 12 12 12 12 12 12 12 14 16 16 17 17 16 19 20 19
6 5 5 8 10 9 8 7 7 6 5 6 3 6 3 4 2 5 6 2 3 2 1 1 1 1 2 2 1 2 3 2 3 4 3 3 3 3 2 2 3 4 5 7 6 7 7 7 9 9 10 10 10 10 9 10 11 11 12 12 12 12 12 11 12 12 13 15 15 17 16 18 19 19
4 6 5 8 10 9 8 7 7 6 6 1 7 4 4 3 4 6 5 5 3 2 3 3 2 2 0 2 1 2 3 4 4 4 4 4 4 3 3 2 2 1 4 5 5 6 6 7 8 8 8 9 10 10 10 9 10 10 12 11 10 12 12 12 11 12 12 13 15 16 15 16 17 18
4 11 15 13 10 9 8 8 7 5 3 4 5 4 5 5 7 6 6 4 3 4 3 3 2 2 2 0 1 2 3 5 6 4 4 4 4 4 5 6 5 3 2 2 4 5 5 6 7 8 8 8 9 9 9 9 10 10 11 12 11 11 12 11 11 12 13 12 13 15 15 15 16 17
13 13 12 10 9 7 6 8 7 7 6 7 6 6 6 7 7 6 5 4 5 4 3 2 2 2 1 2 0 2 4 5 3 3 4 5 4 4 5 5 3 5 4 3 3 4 5 5 5 7 7 7 7 9 8 9 8 9 10 10 10 8 10 11 12 11 12 12 12 13 13 14 15 15
7 8 7 6 5 3 7 3 3 8 9 7 6 6 7 8 6 5 5 4 4 3 3 2 2 1 1 1 3 4 4 4 2 2 4 5 5 5 5 6 4 4 1 3 4 3 6 5 5 5 6 6 7 8 9 8 8 9 9 9 10 8 10 10 11 11 12 11 10 10 11 12 13 14
8 7 6 6 5 4 5 6 7 7 7 8 8 8 8 7 5 0 6 5 4 3 2 2 2 3 3 4 3 3 4 3 2 2 4 4 5 5 6 6 5 4 4 3 2 4 6 4 4 5 4 5 6 7 8 8 8 9 8 8 9 8 9 10 10 11 12 11 10 10 10 11 13 13
8 7 7 7 7 7 5 8 7 8 7 7 7 6 5 6 5 6 6 6 6 4 3 4 3 3 3 3 3 4 4 2 3 2 3 4 5 5 5 6 6 5 6 5 4 3 4 6 5 6 6 6 4 4 7 8 8 8 8 8 8 9 9 9 9 10 10 10 10 10 10 10 10 11
7 7 7 7 7 7 7 7 6 5 7 7 7 6 6 5 5 5 6 5 4 3 3 3 3 4 3 4 4 3 3 3 4 2 2 4 4 5 5 6 5 5 6 6 6 5 6 6 7 7 8 9 5 3 3 6 8 8 9 8 8 9 9 9 9 9 9 9 9 10 10 9 10 10
5 5 6 6 7 7 7 6 6 5 5 4 3 5 6 6 4 4 5 5 3 3 3 3 4 3 4 4 4 4 3 3 4 5 4 4 5 5 5 6 6 6 6 6 6 5 6 7 7 7 7 4 5 8 2 5 6 8 8 8 8 8 9 9 9 8 9 8 8 8 9 8 9 10
6 5 5 5 6 7 6 4 6 6 6 6 5 5 4 4 5 5 5 4 4 4 4 3 3 3 3 5 3 4 4 4 5 5 4 5 5 5 5 5 6 6 6 6 6 6 6 6 6 7 7 6 6 4 3 8 4 4 7 7 8 8 8 9 9 8 8 8 7 8 6 9 8 8
6 5 7 7 7 7 6 7 6 6 6 6 6 6 6 4 5 6 5 3 4 4 4 3 3 3 3 3 4 3 4 5 3 4 3 6 5 5 6 5 5 6 6 6 6 6 5 6 6 6 7 5 6 5 5 2 6 8 5 7 6 7 9 8 8 9 8 8 8 6 6 6 7 7
7 7 8 8 8 7 7 6 6 7 7 6 6 6 5 5 5 4 3 4 4 3 3 4 4 4 4 3 3 3 3 3 4 4 4 6 4 4 4 4 6 6 6 6 6 6 6 6 5 5 6 5 6 7 6 6 5 3 10 4 4 6 7 7 6 6 8 8 8 8 5 3 6 5
9 9 8 7 6 6 6 7 7 6 7 6 6 6 5 5 5 5 5 4 4 3 4 3 4 3 4 5 4 4 4 4 4 4 4 4 6 6 4 4 5 6 7 6 7 7 7 6 4 4 5 6 5 6 6 7 7 6 5 9 3 4 5 6 6 7 8 6 8 8 7 4 5 14
9 8 8 7 7 7 7 6 6 6 6 6 6 6 5 4 5 5 3 4 4 3 3 3 3 3 3 4 4 4 5 7 5 5 4 4 4 6 5 4 5 5 6 7 6 7 7 7 4 3 5 6 6 5 7 7 8 9 7 8 9 5 3 4 5 6 6 8 9 7 7 5 3 4
9 8 8 7 7 7 7 6 6 6 6 6 6 5 5 4 4 3 2 2 2 2 3 3 3 3 4 4 4 4 5 5 5 5 5 5 5 5 5 6 6 6 6 6 7 8 7 5 4 3 3 5 5 7 6 7 7 5 6 1 11 10 8 7 5 6 6 7 7 6 7 6 6 4
9 8 8 8 8 7 6 6 6 5 5 5 5 5 5 3 3 1 2 1 4 4 4 4 4 5 4 4 5 5 5 5 5 5 5 5 5 5 5 6 6 6 5 6 5 7 7 6 4 5 5 5 4 6 7 7 7 7 5 8 2 10 10 10 11 11 8 6 5 7 6 5 4 5
8 7 7 7 7 6 6 6 6 6 5 5 5 5 3 3 3 3 4 4 4 4 4 4 4 4 4 4 4 4 5 5 5 5 5 5 5 6 6 6 6 6 6 6 7 7 6 8 8 6 5 5 6 6 8 7 7 7 8 6 5 4 3 12 15 14 14 14 11 8 6 5 5 5
6 6 6 6 6 6 7 6 6 5 6 5 3 3 3 3 4 4 4 4 4 4 4 4 4 4 4 4 5 5 5 5 5 5 6 6 6 6 6 6 6 6 7 7 7 7 6 6 6 6 6 6 6 7 8 8 8 7 7 7 6 6 8 7 4 10 11 12 15 15 15 13 11 5
5 4 4 4 5 6 5 5 5 5 6 4 3 3 4 4 4 4 4 4 5 4 4 5 5 5 5 5 5 6 6 7 7 6 6 7 6 6 6 6 6 7 7 6 7 7 6 7 6 6 7 7 7 7 7 6 7 7 8 8 8 7 7 6 6 6 6 5 12 18 15 15 15 14
Wind_Direction
77 74 69 69 67 58 50 42 38 33 20 24 17 19 13 345 12 37 53 37 12 34 24 4 16 14 6 5 9 5 26 6 342 15 19 17 12 48 36 36 20 16 18 16 17 16 18 16 16 16 15 16 15 13 14 13 11 12 11 12 8 10 7 7 1 355 337 240 238 235 225 216 213 215
79 75 73 73 71 56 54 52 38 31 27 30 33 28 26 13 24 17 45 58 22 13 29 17 4 3 3 4 11 11 13 23 339 13 14 18 4 78 45 54 27 17 17 18 17 20 17 20 18 16 19 17 17 15 15 13 14 12 14 11 10 10 9 8 2 355 353 353 319 272 240 218 214 222
88 86 83 80 74 68 61 56 50 43 29 35 41 37 36 31 13 21 35 63 54 6 17 14 13 2 352 8 5 10 13 15 353 7 6 11 338 178 70 57 39 16 19 15 22 22 22 21 19 20 19 18 18 18 13 15 13 14 14 11 12 10 11 9 5 359 357 359 350 323 278 231 217 211
94 90 82 70 69 66 71 63 56 52 46 36 39 37 39 41 17 21 52 61 54 31 10 7 9 13 350 20 7 13 14 18 9 9 7 9 352 2 56 78 47 23 18 17 17 20 26 23 23 22 21 19 20 18 17 16 13 16 13 12 10 11 11 11 8 3 2 360 356 346 313 270 231 219
94 89 86 80 72 66 65 65 62 53 49 49 44 38 41 43 30 21 38 44 55 47 18 19 15 18 357 26 13 12 11 8 7 11 8 7 6 5 358 41 62 27 19 15 12 21 25 23 24 24 21 22 20 19 19 16 16 14 15 11 10 10 10 11 11 6 3 2 358 356 353 316 256 221
94 90 87 83 76 67 68 63 60 57 54 50 48 44 40 42 42 19 18 54 41 44 23 23 29 23 15 18 19 9 3 3 1 8 11 7 6 4 2 4 32 37 13 7 18 7 27 27 25 23 22 22 19 22 16 19 15 14 14 11 12 11 9 9 9 7 5 4 1 1 359 358 314 233
106 102 96 91 86 79 77 71 67 62 59 58 56 51 46 44 39 38 25 23 45 40 44 14 21 17 20 19 14 4 0 358 1 1 15 4 9 5 4 7 8 33 6 14 10 6 26 39 30 27 28 21 28 19 20 20 14 16 12 13 13 11 10 9 7 7 6 4 2 1 3 357 354 322
109 103 101 95 91 85 76 71 69 59 55 57 56 56 55 53 42 36 38 29 27 27 40 34 21 18 11 19 15 2 356 3 3 6 13 12 13 13 7 8 9 357 331 36 9 7 28 58 34 31 36 28 27 27 22 19 18 14 15 12 11 11 11 10 8 7 6 4 1 1 358 358 352 348
112 106 97 94 90 85 80 75 68 61 55 52 51 52 56 49 45 44 35 33 29 35 30 36 35 22 19 17 13 5 358 4 8 2 16 12 10 17 14 8 6 354 343 29 45 5 75 93 54 35 44 32 33 30 21 21 18 16 13 13 11 9 10 9 7 6 5 3 3 360 358 356 351 350
112 107 100 93 87 81 80 74 69 61 57 55 53 49 40 45 45 42 41 37 33 33 45 28 30 34 17 11 14 5 358 2 5 2 7 17 11 16 14 13 5 3 356 359 12 15 360 74 128 48 51 48 38 28 29 19 20 15 11 9 10 8 9 9 8 6 3 1 360 359 357 353 352 348
114 108 102 95 86 84 81 77 72 72 63 56 53 41 40 32 32 38 34 35 44 38 34 44 34 26 28 15 7 7 359 6 12 3 359 12 7 17 20 9 8 2 354 351 101 28 345 316 25 88 62 62 50 28 32 19 19 14 9 8 5 7 8 8 8 7 4 1 358 357 355 353 351 346
118 114 110 104 94 79 65 58 67 51 61 63 48 41 34 31 24 30 37 33 41 44 46 37 34 30 21 18 15 5 7 11 17 14 0 6 3 8 23 22 9 2 353 351 1 18 4 356 33 23 45 38 52 43 24 23 16 12 8 5 2 1 4 8 8 5 3 1 360 355 350 350 348 345
123 118 108 96 85 76 66 49 44 43 21 12 56 45 37 34 32 27 32 40 40 46 40 42 35 31 23 19 10 10 9 12 4 0 360 8 8 4 13 22 21 9 353 347 350 18 4 354 10 12 12 17 14 36 26 19 14 10 7 7 1 358 357 358 6 7 3 0 359 354 348 344 341 343
127 116 103 99 97 89 79 73 67 60 54 42 34 27 20 8 29 43 34 38 43 41 44 38 32 28 27 14 14 9 4 1 357 3 6 7 8 7 8 18 21 11 356 348 352 14 10 354 4 15 11 12 18 19 21 20 11 5 5 9 3 357 357 360 0 1 3 360 357 354 351 345 340 336
137 130 124 129 127 119 109 92 82 78 77 69 61 50 40 31 20 8 44 56 34 44 46 41 31 32 24 20 10 10 355 358 0 3 5 5 5 10 7 6 6 18 356 346 342 12 11 354 3 14 10 10 12 19 33 18 12 3 4 10 7 1 358 360 2 2 359 357 356 354 349 346 341 335
151 141 142 144 150 144 128 129 120 106 95 96 82 59 44 33 28 28 21 9 46 40 49 46 35 22 25 15 13 4 357 351 358 360 9 4 0 6 13 5 7 3 354 347 340 8 10 359 358 13 12 7 9 69 41 21 12 4 5 11 11 3 359 358 359 -0 360 360 357 354 350 346 342 337
158 155 151 151 151 131 144 154 133 133 127 128 124 121 119 89 45 15 12 2 359 30 49 51 42 27 6 13 13 4 349 342 349 350 5 357 356 358 7 8 5 3 359 350 343 357 10 0 355 7 13 4 3 30 46 23 9 5 7 13 14 6 359 356 358 359 359 359 359 355 353 349 344 340
167 165 160 157 155 153 178 159 147 145 149 154 165 169 152 108 162 206 205 240 263 345 44 43 42 32 15 13 6 358 349 350 347 350 357 348 348 350 357 8 10 23 7 360 332 350 9 0 353 1 2 357 9 14 69 28 13 357 17 16 20 8 359 356 357 1 359 360 357 357 355 353 347 343
169 172 168 165 158 164 182 159 162 158 162 159 137 124 114 101 66 57 42 34 27 32 35 43 43 34 19 8 3 360 354 347 342 331 341 337 331 327 345 29 28 29 27 4 348 353 360 357 354 356 352 355 8 3 46 48 16 355 11 28 25 10 358 355 359 4 4 2 359 358 357 354 349 346
172 177 177 174 165 167 181 118 316 316 332 151 154 132 136 129 124 86 67 31 341 344 7 24 21 20 24 345 338 335 335 340 338 320 345 346 337 355 7 12 13 24 25 13 357 339 354 355 352 348 347 353 4 5 2 22 19 356 6 40 27 12 358 357 360 6 6 7 2 1 359 356 350 350
174 184 187 180 172 172 173 142 184 236 291 194 154 143 133 133 135 121 129 170 217 250 276 9 351 344 295 266 266 268 275 301 309 330 2 3 353 8 6 9 4 24 16 15 358 327 350 351 353 343 347 354 7 2 4 1 9 3 3 50 34 13 2 357 3 7 7 11 6 4 1 358 351 358
184 147 31 327 185 179 152 150 179 222 253 224 141 166 182 160 153 142 159 172 181 197 226 223 227 220 227 236 244 255 266 292 304 11 6 357 356 9 11 0 359 16 24 17 353 330 3 345 358 345 343 343 16 4 3 2 1 3 2 9 42 18 4 358 8 10 9 14 10 6 4 1 357 7
187 159 176 216 350 350 132 155 180 209 237 228 155 173 197 163 149 119 186 210 205 185 202 199 208 220 222 231 229 212 208 261 278 7 2 2 4 8 6 2 353 7 19 20 354 341 351 350 360 350 347 351 2 4 1 6 3 4 0 358 10 18 1 -0 10 15 13 16 14 8 7 5 3 9
187 179 173 157 139 83 138 159 179 201 228 268 215 210 216 197 161 163 141 5 336 95 353 46 329 330 315 273 259 284 220 226 14 354 11 5 1 4 2 6 2 12 7 13 353 341 341 350 353 351 355 343 350 352 359 3 5 6 0 1 3 3 359 6 8 13 15 18 21 8 10 5 11 10
183 179 186 178 129 144 142 170 174 199 222 257 287 247 311 43 37 332 189 157 256 247 212 226 225 232 214 215 270 258 4 19 4 7 9 10 2 2 3 1 4 6 10 17 343 341 340 348 352 346 353 346 344 347 355 359 6 4 5 3 3 5 358 4 8 9 9 11 23 11 10 6 9 18
179 182 183 162 136 146 157 169 178 191 222 241 259 52 85 67 95 267 286 228 222 230 236 241 227 267 294 317 21 335 359 19 4 348 3 8 358 4 9 359 356 352 354 354 337 342 338 352 352 345 348 346 346 353 349 359 3 1 5 4 8 6 1 360 5 7 11 11 11 9 9 8 5 15
171 185 143 104 127 143 154 165 174 189 193 220 224 91 106 126 249 275 248 291 267 256 241 279 268 262 281 295 330 356 340 7 356 328 354 339 341 345 329 355 336 334 336 335 346 342 345 340 348 348 342 344 341 350 354 357 356 359 1 4 6 8 5 1 3 2 6 13 11 12 11 14 8 8
160 180 156 123 134 141 151 156 168 167 206 234 121 146 143 197 232 251 256 229 239 246 235 231 231 240 330 282 313 355 338 344 334 310 303 302 299 297 321 291 233 316 349 339 336 345 347 338 344 346 335 346 346 353 347 351 352 358 358 355 2 7 5 3 1 357 2 10 15 12 10 9 8 6
100 82 97 121 138 143 154 152 153 155 144 129 149 169 185 220 228 226 243 245 225 232 226 225 225 208 205 257 290 316 304 297 265 285 302 295 275 292 275 242 257 247 226 295 325 347 341 343 339 338 336 352 348 351 345 343 349 355 360 351 358 7 4 4 3 4 360 4 13 16 15 10 9 6
100 109 112 119 130 143 157 170 189 201 164 170 181 188 209 227 233 232 222 219 225 231 219 217 241 251 239 234 37 289 264 268 299 330 315 309 299 313 313 311 224 220 207 261 320 341 338 340 332 332 332 347 355 350 343 335 348 351 1 360 353 353 6 3 4 5 358 2 8 14 16 15 12 8
108 128 146 151 159 109 173 252 43 97 126 161 191 199 209 226 234 212 230 241 243 232 248 233 236 228 261 259 236 242 249 262 280 332 310 306 318 315 318 297 291 319 304 215 239 298 338 329 321 323 326 334 343 356 339 333 345 351 356 3 354 4 356 1 4 4 1 357 8 11 13 15 14 15
156 151 131 139 181 169 190 201 205 200 195 199 197 203 202 212 213 73 25 324 268 262 259 277 274 251 245 249 255 273 261 271 281 308 303 313 309 313 305 293 308 313 319 320 303 189 218 268 301 313 303 317 327 337 338 343 350 349 349 360 354 359 359 360 358 2 357 354 3 12 12 15 16 14
163 171 180 191 196 196 199 202 204 190 197 197 198 206 214 204 200 205 210 209 217 209 212 226 242 267 259 267 257 250 260 262 274 246 298 303 297 305 296 301 308 321 326 324 323 320 329 318 277 254 277 280 260 304 328 347 351 352 347 350 353 354 1 358 355 359 352 359 2 7 10 19 19 15
177 188 191 201 201 206 204 207 209 198 196 197 196 194 207 228 218 213 213 226 231 190 229 258 236 243 271 266 263 272 281 287 282 269 246 279 291 287 299 307 309 321 313 312 317 324 329 319 309 289 227 230 250 249 307 338 349 350 345 346 349 352 355 353 350 357 357 360 357 1 5 14 21 16
206 197 205 208 208 207 216 211 213 209 208 204 207 203 185 211 217 224 235 229 217 219 228 233 256 265 255 263 268 278 280 292 290 285 270 278 277 287 298 299 312 317 314 309 312 323 327 323 322 321 332 318 216 189 295 317 357 343 341 343 350 347 348 349 341 350 352 358 3 5 359 2 16 20
209 213 213 216 219 215 217 219 221 218 215 204 210 211 210 212 209 213 225 223 230 222 229 236 242 242 251 263 277 281 281 285 281 280 289 289 290 292 290 298 307 303 303 302 314 318 318 320 320 327 331 328 329 323 164 232 288 341 336 339 345 342 342 339 341 340 347 352 360 1 3 360 5 15
218 218 224 223 224 222 222 217 218 221 229 221 219 214 208 214 217 220 213 193 238 259 270 267 251 250 250 254 258 258 262 261 267 277 283 279 282 283 284 285 280 288 291 301 311 305 310 310 313 324 327 324 327 325 333 90 235 255 338 334 329 340 334 332 337 339 340 346 350 354 350 2 355 14
226 224 223 230 232 227 221 223 219 226 226 225 221 220 223 222 219 215 199 208 222 231 234 235 241 247 254 257 259 263 270 274 277 277 272 275 277 284 290 292 293 294 302 303 303 303 299 297 303 324 321 325 321 321 326 330 330 223 210 289 320 331 325 330 332 336 332 342 344 340 327 339 348 359
222 226 226 231 236 243 236 227 228 225 226 226 225 225 223 224 221 223 219 229 235 235 234 244 248 252 262 262 267 271 273 276 279 284 289 288 285 283 287 292 295 294 296 299 299 299 295 292 299 314 327 319 318 325 326 318 302 316 179 205 293 317 329 331 327 325 328 331 333 334 328 332 113 109
227 231 230 230 233 236 240 237 229 229 229 229 231 226 222 223 227 225 231 232 232 237 252 262 273 278 266 265 269 270 268 264 259 260 261 267 273 278 279 286 294 297 292 286 289 288 294 294 303 334 333 312 312 303 301 289 287 278 259 195 209 228 317 331 316 320 318 326 324 324 326 329 321 182
220 225 231 238 240 236 237 238 237 232 231 233 232 230 241 238 233 234 241 249 250 249 253 256 256 253 261 267 268 268 273 274 274 273 273 271 271 269 273 278 277 273 275 278 277 286 286 309 78 113 249 285 274 281 272 270 281 308 324 333 191 221 234 251 297 311 304 314 313 314 318 328 335 321
215 222 229 232 239 248 247 246 245 242 240 233 239 231 224 233 239 239 261 252 255 257 265 267 260 257 252 248 250 250 254 261 271 276 278 280 280 280 265 259 267 273 279 281 285 286 293 308 155 195 237 250 267 274 281 295 299 304 318 309 291 198 223 232 237 244 272 293 307 307 308 314 336 323
209 221 224 234 245 250 251 250 249 248 248 247 246 245 245 238 240 208 233 242 241 240 247 253 253 255 259 259 260 263 266 264 265 267 272 272 272 273 276 277 279 285 284 284 285 286 288 284 282 279 278 278 275 275 279 284 294 293 291 293 313 318 266 212 220 227 231 241 246 255 275 299 311 310
214 217 231 241 243 241 244 249 256 261 263 261 258 255 249 249 243 244 251 258 256 252 249 252 258 261 261 264 267 268 268 270 271 273 271 272 271 273 278 282 282 277 276 278 278 279 281 283 281 275 271 274 281 284 285 288 283 286 295 298 305 300 292 296 239 216 232 243 242 238 248 255 256 284
225 227 233 246 258 265 262 258 254 257 261 267 267 264 261 255 257 260 253 252 262 265 267 268 270 269 267 270 270 269 269 269 268 268 269 269 267 264 260 261 265 265 268 273 282 281 280 281 280 279 275 270 268 269 274 274 278 290 287 284 280 277 285 288 297 302 289 284 212 211 226 230 239 245